RH
64 60 59 58 59 60 60 61 62 62 62 61 61 61 62 64 64 65 64 64 63 60 57 58 59 58 61 76 69 37 44 45 37 42 49 46 72 74 92 76 77 84 73 66 66 56 51
62 56 59 59 60 60 61 61 62 63 62 62 62 62 63 65 66 66 65 64 61 57 57 55 53 54 68 87 44 37 44 40 40 54 57 62 61 71 94 82 78 71 70 67 74 86 76
61 59 59 60 60 61 61 62 63 63 62 62 63 64 65 66 67 67 65 63 55 57 51 50 50 48 62 66 39 40 40 44 43 49 66 63 60 84 94 94 61 66 93 62 66 83 64
60 59 62 59 62 62 62 63 63 63 63 63 64 65 66 68 69 68 65 57 57 54 50 46 44 48 67 38 42 39 32 35 39 47 56 52 57 77 96 83 75 78 86 97 59 85 85
61 60 60 62 62 62 63 64 64 64 64 64 65 67 70 71 70 67 61 56 55 52 46 42 40 40 46 30 25 19 21 35 40 42 54 48 71 86 96 98 98 80 94 99 80 57 79
60 62 62 62 63 64 64 64 64 65 65 66 67 70 72 72 70 65 63 53 46 44 37 25 24 41 33 30 23 22 28 36 47 45 63 78 98 99 98 98 91 83 96 82 93 62 78
62 62 63 64 65 64 64 65 66 66 66 67 70 74 75 71 68 63 66 55 60 67 65 67 55 53 44 24 24 26 27 36 43 59 79 69 99 96 94 89 68 93 67 96 76 58 65
63 64 65 64 64 65 66 66 67 67 67 69 73 76 73 69 62 59 58 58 66 66 91 57 53 49 38 25 32 30 27 43 52 66 58 90 96 78 57 69 81 92 97 73 67 52 75
65 65 64 65 65 65 66 66 67 68 70 72 78 78 73 66 69 54 52 54 54 63 94 61 47 29 31 32 39 32 39 45 53 56 63 90 68 78 66 79 94 92 96 72 63 63 62
65 65 66 66 65 66 66 67 68 69 75 77 77 78 71 72 55 52 53 56 62 66 96 48 42 36 32 35 40 25 38 45 50 69 60 78 70 79 93 64 93 97 76 77 52 70 97
65 66 65 65 67 66 67 67 68 72 76 77 76 74 72 71 78 60 48 63 67 86 71 35 42 30 32 39 36 34 40 47 72 53 68 69 54 69 95 67 69 93 96 95 58 58 69
66 65 66 65 66 70 70 71 70 74 76 77 76 77 75 63 55 46 50 60 82 58 73 48 40 47 46 40 40 36 50 49 49 58 40 48 42 67 90 62 57 62 99 97 78 64 97
67 66 68 65 71 69 70 73 74 75 76 77 77 76 74 48 53 46 55 74 62 88 38 48 58 49 48 51 49 50 61 84 92 91 73 53 88 88 77 78 82 81 99 98 98 98 89
66 65 65 66 63 65 71 72 74 75 76 76 76 73 60 38 48 56 65 56 85 60 70 49 52 51 63 52 57 60 70 94 75 94 96 91 83 75 68 94 95 95 97 97 96 96 94
70 68 67 65 69 66 70 70 71 74 76 75 72 74 60 47 49 66 59 90 83 72 62 60 58 77 63 57 72 77 74 96 90 92 97 97 70 42 67 72 94 98 94 93 96 69 81
74 74 74 69 66 66 68 67 70 74 75 76 81 80 63 51 52 58 75 75 70 54 59 58 81 82 95 79 85 88 80 89 90 78 91 89 92 43 44 72 95 87 88 97 97 96 93
77 76 75 76 73 70 70 69 66 71 74 73 88 86 57 49 54 71 94 91 67 46 53 68 82 83 82 90 85 90 85 70 82 85 79 97 97 66 58 88 96 91 87 93 94 76 73
76 73 75 75 75 71 68 70 66 70 73 70 97 79 52 58 70 74 93 82 57 54 56 64 64 72 94 79 95 92 92 64 58 84 94 92 98 93 84 94 94 84 86 81 95 93 71
78 75 77 79 80 77 71 72 66 68 70 88 99 97 67 52 95 88 75 73 60 65 66 72 73 66 66 84 95 88 81 54 61 88 87 85 89 92 76 76 68 93 91 85 80 93 88
79 78 78 83 83 80 74 73 70 68 68 91 98 95 75 74 67 87 93 83 77 63 73 65 72 67 78 82 76 93 80 74 68 76 62 80 94 96 96 96 94 91 91 84 92 95 88
70 76 77 81 83 81 79 74 75 71 69 85 97 95 84 93 79 93 84 81 83 91 76 75 72 70 81 94 89 84 66 74 70 77 84 91 96 86 91 91 85 88 92 92 90 92 92
71 74 75 78 81 81 82 77 77 71 71 88 97 98 97 96 91 81 72 79 90 83 92 83 85 68 75 92 82 90 78 82 92 86 94 86 92 94 93 88 76 88 87 91 92 88 87
72 73 77 77 80 84 84 82 79 75 76 96 95 89 99 83 90 86 86 87 83 83 72 67 64 70 67 64 58 59 60 79 82 93 98 89 95 96 94 93 92 77 96 95 95 94 94
77 77 76 77 80 84 87 84 81 82 73 92 94 97 100 95 82 76 83 78 80 76 84 61 60 70 55 48 54 58 61 88 91 87 93 88 93 97 97 95 92 96 90 94 93 95 95
77 80 79 78 78 83 85 88 84 84 79 93 91 98 100 96 81 78 81 83 84 79 77 69 59 58 55 62 83 77 78 65 64 72 69 88 93 98 97 100 96 90 91 95 96 97 95
78 80 81 79 83 84 87 88 86 84 83 92 92 93 99 100 89 84 93 93 99 97 87 67 56 59 63 72 88 90 89 91 76 72 58 56 87 93 99 97 100 85 84 87 94 95 89
80 81 82 82 84 86 88 89 89 88 83 91 92 88 97 99 83 85 89 93 91 93 97 90 81 83 71 86 96 98 92 73 94 100 98 90 91 99 99 99 97 96 85 86 92 91 90
82 86 87 86 87 87 89 89 89 90 84 86 93 87 94 99 80 82 77 91 97 96 99 88 80 79 90 94 98 96 97 94 96 97 100 99 100 100 96 96 98 87 71 85 88 94 89
86 88 88 89 88 88 89 90 91 87 80 75 98 82 85 98 85 86 76 70 79 76 94 82 88 93 94 97 98 99 95 97 97 98 91 93 90 92 89 95 92 94 95 96 91 95 85
Wind_Speed
19 18 18 19 20 21 22 23 24 24 25 26 27 27 28 29 30 29 27 27 27 26 25 23 21 17 5 4 10 14 19 10 8 9 7 14 17 18 26 21 23 31 29 22 15 22 26
17 18 18 19 20 21 22 24 24 25 26 26 28 29 29 31 30 27 27 27 28 25 24 20 16 11 3 8 8 2 4 8 11 1 8 10 12 15 13 26 29 11 30 32 20 21 15
15 17 18 19 20 22 23 24 25 25 26 28 29 30 31 32 29 28 28 26 26 25 24 22 16 6 5 14 6 7 7 5 9 10 9 11 15 14 5 9 25 23 24 31 27 20 18
17 17 19 21 22 23 24 24 25 26 27 29 31 31 32 32 29 28 25 25 26 23 22 15 15 5 7 8 4 6 12 8 9 6 8 13 13 17 5 5 12 17 24 23 37 26 26
17 19 21 21 22 23 23 24 25 27 28 29 31 32 32 31 28 27 22 24 25 25 17 20 3 4 4 2 8 16 13 6 10 13 11 9 14 11 7 8 9 23 19 26 24 27 19
20 20 20 22 23 23 24 25 26 28 29 30 31 32 33 30 27 23 22 23 20 14 13 6 3 6 5 8 14 14 5 7 9 14 11 7 10 10 13 12 16 24 25 22 21 19 20
20 21 22 22 23 24 25 25 26 27 29 30 31 32 32 29 24 21 14 5 7 8 7 4 11 5 15 9 8 17 5 3 5 5 13 13 12 14 14 17 22 11 28 21 15 20 22
21 22 23 23 23 24 26 27 27 28 30 32 31 31 31 28 25 15 5 5 1 5 9 6 15 12 12 8 18 16 3 4 5 13 12 10 13 19 17 19 19 18 21 30 9 12 17
22 23 23 23 25 26 27 28 29 30 30 31 31 31 29 25 24 5 3 4 2 6 2 9 6 7 16 16 20 16 1 5 11 14 12 10 14 9 20 15 16 18 15 29 21 13 17
23 23 24 25 26 27 28 29 30 31 30 30 31 31 26 24 6 6 2 5 5 4 3 5 6 6 16 18 5 18 6 5 6 8 14 8 5 13 16 21 13 15 5 25 24 20 12
24 24 25 26 28 29 30 30 32 32 31 30 31 31 25 20 5 4 6 3 5 2 6 17 7 9 22 12 16 12 4 6 4 13 2 7 15 13 5 20 18 2 8 17 20 16 13
24 25 26 27 28 30 31 31 31 32 32 32 32 29 22 6 2 5 7 4 2 5 6 11 12 24 23 20 19 14 3 6 5 10 9 12 10 4 3 5 17 7 4 11 5 13 13
23 25 26 27 28 29 30 30 31 31 33 33 34 27 13 3 6 12 5 4 6 6 8 11 23 23 15 18 15 19 10 8 10 12 19 12 7 5 10 2 13 14 9 5 9 8 5
23 24 26 26 27 29 30 30 31 32 33 34 33 23 7 3 7 7 5 7 8 6 6 17 18 16 8 18 16 18 10 7 3 6 5 9 8 9 14 4 2 10 5 1 5 6 6
23 24 25 26 27 29 30 30 31 32 34 36 26 5 5 6 9 4 7 7 2 5 11 15 18 5 7 17 9 10 12 9 4 14 6 6 7 9 9 3 4 3 5 5 3 3 5
24 24 24 26 27 28 30 30 31 31 33 34 7 5 6 8 9 7 7 3 4 6 9 5 6 5 8 16 12 9 13 4 16 14 12 4 8 4 12 4 1 3 2 4 4 4 7
22 23 25 24 25 26 28 29 31 31 32 29 4 5 5 13 6 6 5 4 7 10 9 7 4 7 6 15 10 7 9 8 16 15 10 3 1 11 5 9 5 4 3 1 3 1 4
21 22 22 23 22 24 26 27 30 30 31 15 4 4 5 5 6 3 3 4 7 11 4 3 4 4 6 19 6 4 7 10 15 15 13 4 3 5 5 4 11 17 9 6 2 2 3
21 23 24 22 21 22 24 25 28 30 30 8 4 4 5 6 5 4 5 5 4 10 6 5 5 3 10 8 7 5 9 14 14 11 16 10 5 7 6 4 9 10 15 9 10 4 2
22 23 24 23 20 20 22 24 25 26 31 7 4 5 5 5 3 2 5 5 8 6 5 7 6 5 8 8 4 6 12 9 18 6 20 7 4 4 3 4 4 7 19 19 6 3 4
22 22 23 24 22 21 20 23 22 24 27 4 4 3 1 7 7 10 5 6 12 9 2 5 4 11 10 7 7 5 16 16 9 8 9 4 5 12 11 11 17 16 17 20 18 11 5
22 22 23 24 24 22 17 20 20 21 20 4 2 3 3 6 7 6 7 8 9 12 3 7 7 19 7 3 4 20 17 6 5 7 6 6 4 3 1 8 15 19 20 14 13 13 15
22 23 23 24 24 23 20 19 18 18 10 2 3 2 2 6 4 4 3 11 12 8 6 5 14 11 17 8 16 20 17 7 7 2 5 3 3 2 2 7 5 7 14 10 6 10 5
21 22 23 24 23 23 20 19 17 12 12 1 3 2 2 5 3 7 13 13 10 10 8 14 8 5 11 18 18 7 2 4 4 2 1 4 3 2 2 3 6 2 8 7 10 8 7
23 22 23 23 23 23 22 18 16 10 10 2 2 2 2 6 7 11 7 9 9 8 4 5 6 9 12 9 5 6 6 7 4 4 8 4 1 3 4 4 2 1 6 4 3 4 10
23 23 23 23 22 24 22 21 13 11 7 1 2 3 2 5 4 5 6 4 4 4 7 5 7 9 7 3 3 3 2 2 6 11 9 8 3 5 4 5 4 5 8 4 5 3 10
23 23 23 22 22 23 22 21 18 11 11 2 2 4 2 6 6 2 7 6 4 2 3 5 8 8 6 5 4 3 4 3 3 5 7 7 6 4 5 3 1 4 12 5 4 5 13
24 23 23 22 22 22 22 21 21 11 11 4 3 4 3 4 9 6 4 2 2 2 1 5 7 5 4 6 3 4 2 4 2 1 3 2 2 3 3 5 2 5 3 8 6 6 8
24 24 23 23 22 22 22 22 19 9 13 7 3 2 4 5 6 2 8 11 8 8 2 1 3 2 2 3 2 2 4 3 1 2 2 3 4 3 4 5 4 3 7 3 4 3 9
Wind_Direction
26 13 13 7 6 2 360 359 357 354 351 349 346 343 340 338 335 333 328 326 322 319 320 321 318 317 349 256 254 269 297 329 333 350 329 288 283 285 246 247 234 232 244 239 215 219 206
19 13 10 7 4 2 359 357 355 352 349 345 345 341 339 337 335 331 327 325 318 323 318 316 317 319 282 270 246 336 348 328 301 350 292 277 235 282 293 258 236 246 236 242 259 204 224
11 11 6 7 3 1 360 357 353 350 347 345 343 342 340 337 334 330 331 323 324 320 318 312 302 277 235 248 245 264 255 226 261 259 254 253 266 254 331 288 245 263 248 243 239 240 208
12 7 3 6 5 1 358 355 350 349 349 347 345 341 338 336 333 333 330 322 321 319 320 325 296 224 236 244 277 263 269 267 245 228 246 275 277 227 231 268 269 234 232 228 226 206 233
7 8 7 5 2 359 357 354 351 349 349 348 342 340 339 335 334 334 328 326 320 323 312 315 304 170 267 282 314 296 289 272 268 260 250 266 267 196 189 218 248 235 231 223 242 207 224
11 11 8 5 3 359 356 355 353 350 348 348 341 341 339 335 335 334 324 323 318 334 334 328 86 35 316 309 307 295 221 224 268 284 280 239 232 191 189 211 217 208 226 219 235 215 204
12 11 8 5 2 357 355 354 353 351 348 346 345 342 340 336 339 332 334 357 8 343 36 267 273 246 274 295 339 328 237 269 264 252 272 274 226 216 189 210 233 281 219 227 228 216 194
11 9 7 5 358 355 354 353 352 349 348 344 344 345 341 336 339 337 12 50 174 222 310 290 262 254 259 310 318 313 290 285 275 290 297 270 244 234 218 206 219 231 237 223 237 207 182
13 9 5 360 358 358 354 352 350 348 347 347 343 345 341 339 330 17 3 351 189 121 230 296 251 302 355 343 316 320 317 271 289 289 307 298 270 249 211 202 212 237 269 205 203 189 205
10 6 3 360 359 355 354 352 349 346 346 347 345 341 340 338 12 318 44 345 83 95 40 322 11 335 338 328 318 325 332 278 283 304 306 274 300 327 206 218 229 232 249 222 191 182 208
6 4 2 359 356 357 353 351 348 344 345 346 343 340 335 333 255 345 297 124 113 94 37 331 346 299 331 348 325 344 19 324 286 315 253 289 306 321 248 207 194 196 31 239 180 189 188
2 0 360 358 357 353 351 348 347 344 342 343 341 338 331 333 5 250 301 143 40 34 318 329 338 325 332 352 341 326 65 5 279 293 294 283 254 270 281 217 194 231 221 216 44 193 217
1 359 358 355 356 351 349 348 345 345 340 341 339 334 328 321 312 313 319 78 34 71 324 329 324 326 321 345 337 354 357 2 24 340 356 328 3 358 27 208 171 185 167 178 167 178 198
1 360 358 353 356 352 350 348 346 343 340 340 338 327 304 287 303 339 37 52 58 348 273 311 323 319 328 0 332 343 352 356 342 338 313 351 337 4 346 303 313 196 170 59 125 139 119
3 360 357 355 353 352 352 350 346 343 341 340 337 320 325 304 328 34 66 50 310 342 306 319 324 322 340 346 340 350 359 340 340 352 354 343 303 316 278 293 280 167 199 77 341 84 105
0 359 357 357 356 353 350 352 347 345 342 341 328 332 299 326 347 50 63 56 306 289 335 332 345 344 323 336 338 345 348 339 347 357 346 297 295 289 326 314 218 24 121 131 172 189 129
358 358 357 354 354 351 350 352 350 346 345 343 14 9 276 346 43 44 82 246 285 326 9 344 321 301 294 334 317 312 340 320 357 325 327 298 133 307 311 16 330 342 73 10 328 264 132
356 353 351 354 351 353 350 353 351 347 347 351 360 10 309 2 43 26 357 283 280 329 339 317 314 288 328 326 297 298 332 352 351 332 348 12 299 300 297 59 56 63 11 330 297 19 16
347 347 346 347 351 351 352 354 353 348 349 342 338 273 308 62 44 9 303 291 300 333 325 355 298 337 319 312 323 303 344 326 348 347 359 347 336 322 338 10 40 27 5 332 278 293 261
341 341 341 343 344 352 352 350 351 352 346 1 18 349 325 17 12 349 321 304 328 327 306 331 265 320 328 302 259 288 340 317 320 314 354 4 303 337 92 70 25 5 358 355 287 126 44
342 337 337 339 342 351 351 348 351 354 348 43 24 307 8 312 339 323 311 350 336 354 316 321 323 334 328 325 301 335 322 327 314 355 340 52 3 92 106 112 80 52 23 18 44 3 47
338 337 331 332 338 346 347 345 350 355 352 63 61 335 329 278 282 324 340 343 336 331 231 308 326 323 324 294 246 307 311 319 271 334 1 353 8 294 85 142 77 55 24 31 38 7 41
338 335 331 328 328 335 343 341 347 354 25 355 297 255 259 281 302 352 333 337 320 336 290 260 315 316 317 304 308 290 277 234 234 19 316 46 325 305 251 205 300 30 1 28 79 30 13
333 332 333 327 325 325 331 337 348 351 10 276 280 270 289 281 318 302 320 322 320 322 289 311 320 347 294 312 307 301 27 84 144 341 76 328 348 271 338 37 53 124 47 58 97 66 51
331 330 328 326 324 322 324 324 340 336 348 284 274 297 282 283 300 300 313 326 301 297 278 282 325 297 310 321 337 346 351 11 17 96 17 84 9 329 85 37 165 45 16 332 343 89 31
327 326 326 324 321 319 320 322 315 321 321 266 252 221 245 306 261 315 311 300 301 307 330 284 323 315 3 329 2 37 353 270 325 335 16 355 55 93 17 91 122 230 305 273 207 188 14
320 322 321 319 316 318 321 319 314 312 319 321 252 212 216 273 264 145 307 282 280 302 271 308 334 334 23 352 352 6 307 352 353 345 331 348 354 60 4 90 246 249 298 296 53 309 345
319 319 316 315 315 316 318 317 318 320 333 332 234 204 220 251 281 233 265 253 287 201 192 310 355 357 360 21 15 319 333 276 72 136 157 121 62 345 351 45 357 331 8 85 246 299 317
317 316 314 314 313 312 313 314 321 349 338 356 261 233 235 236 266 283 255 250 243 247 221 186 212 348 242 37 5 331 298 320 276 248 340 357 169 184 138 213 238 319 105 185 243 286 333